Location: ??
(35.1714°N, 128.2806°E)
Time: 15:40:45
(UTC+00:00)

Cosmos 2360 Rocket - Pass Details

Date: 29 October 2020
Orbit: 835 x 843 km, 71.0° (Epoch: 01 December)

Event Time Altitude Azimuth Distance (km) Brightness Sun altitude
Rises 21:09:50 0° 350° (N) 3,390 5.1 -8.1°
Reaches altitude 10° 21:12:38 10° 2° (N) 2,452 4.5 -7.5°
Maximum altitude 21:17:25 28° 60° (ENE) 1,519 4.2 -6.5°
Drops below altitude 10° 21:22:11 10° 119° (ESE) 2,442 6.2 -5.6°
Sets 21:24:57 0° 131° (SE) 3,373 6.6 -5.0°
